• Join FlightAware (Why Join?)
  • Login
  • US Flag GB Flag 
11:07 EDT


 

Airport Tracker/Info


-or-


 

Live Flight TrackerFlight Track Log ✈ UAL5887 ✈ 21-Apr-2013 ✈ KORD - CYOW

Flight Track Log - Related Links

Times and Time Zones

All times are in EDT time to prevent confusion due to time zone crossing. See the UAL5887 flight status page for this flight to view local times or setup timezone preferences in your user account.

Time Position Orientation Groundspeed Altitude Reporting Facility
EDT Latitude Longitude Course Direction KTS MPH feet Rate Location/Type
10:10 41.9667 -87.8333 66° East 192 221 3,400  Level Chicago TRACON
10:11 42.0172 -87.7092 61° Northeast 260 299 6,800 2,220 Climbing Chicago Center
10:12 42.0572 -87.6153 60° Northeast 283 326 9,400 2,700 Climbing Chicago Center
10:14 42.1064 -87.4994 60° Northeast 294 338 12,400 2,460 Climbing Chicago Center
10:15 42.2107 -87.2347 66° East  Level FlightAware Approximate
10:15 42.1467 -87.3969 62° Northeast 307 353 14,500  Level Chicago Center
10:16 42.1906 -87.2875 62° Northeast 328 377 15,000 1,500 Climbing Chicago Center
10:17 42.2158 -87.1700 74° East 322 371 17,600 2,040 Climbing Chicago Center
10:18 42.2203 -87.0519 87° East 316 364 19,300 1,800 Climbing Chicago Center
10:19 42.2250 -86.9306 87° East 323 372 21,300 1,620 Climbing Chicago Center
10:20 42.2292 -86.8036 87° East 336 387 22,700 1,140 Climbing Chicago Center
10:21 42.2339 -86.6528 88° East 374 430 23,700 900 Climbing Chicago Center
10:22 42.2397 -86.5003 87° East 401 461 24,600 840 Climbing Chicago Center
10:23 42.2439 -86.3433 88° East 415 478 25,500 960 Climbing Chicago Center
10:24 42.2503 -86.1486 87° East 430 495 26,600 960 Climbing Chicago Center
10:25 42.2544 -85.9842 88° East 436 502 27,500 780 Climbing Chicago Center
10:26 42.2581 -85.8314 88° East 441 507 28,300 780 Climbing Chicago Center
10:27 42.2633 -85.6667 87° East 443 510 29,200 960 Climbing Chicago Center
10:28 42.2678 -85.4656 88° East 448 516 30,300 900 Climbing Chicago Center
10:29 42.2722 -85.3403 87° East 454 522 30,900 1,200 Climbing Cleveland Center
10:30 42.2769 -85.1664 88° East 454 522 32,600 1,800 Climbing Cleveland Center
10:31 42.2836 -85.0014 87° East 454 522 34,600 1,200 Climbing Cleveland Center
10:32 42.3189 -84.8408 73° East 448 516 35,000 180 Climbing Cleveland Center
10:33 42.3525 -84.6575 76° East 454 522 35,000  Level Cleveland Center
10:34 42.3897 -84.4856 74° East 459 528 35,000  Level Cleveland Center
10:35 42.4247 -84.3161 74° East 466 536 35,000  Level Cleveland Center
10:36 42.4614 -84.1467 74° East 466 536 35,000  Level Cleveland Center
10:37 42.4956 -83.9739 75° East 466 536 35,000  Level Cleveland Center
10:38 42.5272 -83.8233 74° East 466 536 35,000  Level Cleveland Center
10:39 42.5633 -83.6475 74° East 471 542 35,000  Level Cleveland Center
10:40 42.5969 -83.4744 75° East 471 542 35,000  Level Cleveland Center
10:41 42.6325 -83.2981 75° East 471 542 35,000  Level Cleveland Center
10:42 42.6678 -83.1189 75° East 471 542 35,000  Level Cleveland Center
10:43 42.7028 -82.9453 75° East 471 542 35,000  Level Cleveland Center
10:44 42.7353 -82.7711 76° East 471 542 35,000  Level Cleveland Center
10:45 42.7697 -82.5969 75° East 471 542 35,000  Level Cleveland Center
10:46 42.8039 -82.4283 75° East 471 542 35,000  Level Cleveland Center
10:47 42.8544 -82.2625 67° East 471 542 35,000  Level Cleveland Center
10:48 42.9108 -82.0969 65° Northeast 471 542 35,000  Level Cleveland Center
10:49 42.9500 -81.9167 73° East 480 552 35,000  Level Toronto Center
10:50 43.0167 -81.7500 61° Northeast 480 552 35,000  Level Toronto Center
10:51 43.0667 -81.5667 69° East 480 552 35,000  Level Toronto Center
10:52 43.1167 -81.4167 65° Northeast 480 552 35,000  Level Toronto Center
10:53 43.1667 -81.2333 69° East 480 552 35,000  Level Toronto Center
10:54 43.2167 -81.0667 68° East 480 552 35,000  Level Toronto Center
10:55 43.2667 -80.9167 65° Northeast 490 564 35,000  Level Toronto Center
10:56 43.3333 -80.7333 63° Northeast 480 552 35,000  Level Toronto Center
10:57 43.3833 -80.5667 68° East 480 552 35,000  Level Toronto Center
10:58 43.4500 -80.3833 63° Northeast 490 564 35,000  Level Toronto Center
10:59 43.5000 -80.2333 65° Northeast 490 564 35,000  Level Toronto Center
11:00 43.5500 -80.0500 69° East 490 564 35,000  Level Toronto Center
11:01 43.6000 -79.8667 69° East 490 564 35,000  Level Toronto Center
11:02 43.6500 -79.7000 67° East 480 552 35,000  Level Toronto Center
11:03 43.7000 -79.5167 69° East 490 564 35,000  Level Toronto Center
11:04 43.7500 -79.3500 67° East 490 564 35,000  Level Toronto Center
11:05 43.8167 -79.1667 63° Northeast 490 564 35,000  Level Toronto Center
11:06 43.8667 -79.0167 65° Northeast 500 575 35,000  Level Toronto Center
11:07 43.9167 -78.8167 71° East 490 564 35,000  Level Toronto Center
11:08 43.9667 -78.6667 65° Northeast 490 564 35,000  Level Toronto Center
11:09 44.0000 -78.4667 77° East 490 564 35,000  Level Toronto Center
11:10 44.0500 -78.2833 69° East 490 564 35,000  Level Toronto Center
11:11 44.1000 -78.1167 67° East 490 564 35,000 -1,020 Level Toronto Center
11:12 44.1667 -77.9333 63° Northeast 490 564 33,000 -1,980 Descending Toronto Center
11:13 44.2333 -77.8000 55° Northeast 480 552 31,100 -2,040 Descending Toronto Center
11:14 44.3167 -77.6333 55° Northeast 470 541 29,000 -1,980 Descending Toronto Center
11:15 44.3833 -77.4833 58° Northeast 470 541 27,200 -2,040 Descending Toronto Center
11:16 44.4500 -77.3667 51° Northeast 480 552 25,400 -1,800 Descending Montreal Center
11:17 44.5167 -77.2333 55° Northeast 470 541 24,000 -1,200 Descending Montreal Center
11:18 44.5833 -77.0667 61° Northeast 440 506 23,100 -1,380 Descending Montreal Center
11:19 44.6500 -76.9333 55° Northeast 440 506 21,300 -2,160 Descending Montreal Center
11:20 44.7167 -76.8167 51° Northeast 420 483 18,800 -2,100 Descending Montreal Center
11:21 44.7833 -76.6833 55° Northeast 390 449 17,100 -1,800 Descending Montreal Center
11:22 44.8333 -76.5667 59° Northeast 390 449 15,300 -1,740 Descending Montreal Center
11:23 44.9000 -76.4333 55° Northeast 380 437 13,700 -1,500 Descending Montreal Center
11:24 44.9667 -76.3167 51° Northeast 370 426 12,400 -1,320 Descending Montreal Center
11:25 45.0167 -76.2333 50° Northeast 310 357 11,100 -1,500 Descending Montreal Center
11:26 45.0667 -76.1333 55° Northeast 270 311 9,400 -1,560 Descending Montreal Center
11:27 45.1000 -76.0667 55° Northeast 260 299 8,000 -720 Descending Montreal Center
11:28 45.1500 -75.9667 55° Northeast 260 299 8,000  Level Montreal Center
11:29 45.1833 -75.9000 55° Northeast 260 299 8,000 -600 Level Montreal Center
11:30 45.1667 -75.7833 101° East 270 311 6,800 -1,680 Descending Montreal Center
11:31 45.1667 -75.6833 90° East 250 288 4,700 -1,920 Descending Montreal Center
11:32 45.2000 -75.6167 55° Northeast 210 242 3,000 -900 Descending Montreal Center
11:33 45.2333 -75.5833 35° Northeast 150 173 3,000 -780 Level Montreal Center
11:34 45.2667 -75.6167 325° Northwest 130 150 1,500 -1,260 Descending Montreal Center
11:35 45.2833 -75.6667 295° West 130 150 500 -1,020 Descending Montreal Center